Карточка аэропорта UNNT

Внимание!
Информация на этой странице в стадии наполнения.
Если вы не увидели какой-то информации, или заметили неточность - пожалуйста сообщите нам!
Спасибо!
Команда RU-STAFF
Название аэропортаТолмачево
Название аэропорта (англ.)Tolmachevo
Превышение367 ft. (111.9 m.)
Координаты55°0.77999999999989', 82°38.178'
Высота перехода1300m
Эшелон переходаFL060
Коды ответчика5201-5227
Зона ОрВДНовосибирск РПИ (UNNT)
Данные METARUNNT 090900Z 16002MPS 9000 SCT013 M19/M23 Q1019 R25/490145 R34/////// NOSIG RMK QFE754/1006
Проноз погоды (TAF)UNNT 090800Z 0909/1009 30003MPS 8000 -SN SCT016 TEMPO 0918/1005 0600 FZFG BKN002
NOTAMshow/hide NOTAM
AWOS   TABLE

Информация о ВПП

ВПП Длина ВПП (м.) Покрытие Курс ВПП Частота ILS
073597Асфальтобетон72110.1
253597Асфальтобетон252108.5
163602Цементобетон161109.7
343602Цементобетон341111.1

Диспетчерские позиции

Позывной Наименование органа УВД Частота
UNNT_DEL Новосибирск-Деливери135.4
UNNT_GNDНовосибирск-Руление121.7
UNNT_TWRНовосибирск-Вышка118.5
UNNT_R_APPНовосибирск-Круг122.0
UNNT_APPНовосибирск-Подход127.5



Спутниковое изображение